Location: Hylvaty SDH
(49.9612°N, 16.4057°E)
Time: 20:40:49
(UTC+01:00)

Vanguard 1 Rocket - Pass Details

Date: 09 October 2020
Orbit: 656 x 4221 km, 34.3° (Epoch: 30 October)

Event Time Altitude Azimuth Distance (km) Brightness Sun altitude
Rises 14:56:48 0° 198° (SSW) 3,622 11.6 26.3°
Reaches altitude 10° 15:00:08 10° 176° (S) 3,058 10.9 26.0°
Maximum altitude 15:04:37 17° 140° (SE) 3,134 10.4 25.5°
Drops below altitude 10° 15:10:44 10° 106° (ESE) 4,409 10.7 24.9°
Sets 15:17:16 0° 90° (E) 6,213 11.3 24.2°
